User: anonymous   Login
Location: Unspecified
(0.0000°N, 0.0000°E)
Time: 10:02:32
(UTC+00:00)
Language:

TBA - TO BE ASSIGNED - Orbit

View from above orbital plane
View from above orbital plane
View from above satellite
View from above satellite

Ground track
Ground track

The orbit is defined by the following mean orbital elements,

1 67426U          26145.52956115 +.00000000 +00000-0 +94838-3 0 00005
2 67426  43.0006 164.4180 0003844 241.3029 118.7437 15.27636095    09
Epoch (UTC): 25 May 2026 12:42:34
Eccentricity: 0.0003844
inclination: 43.0006°
perigee height: 480 km
apogee height: 486 km
right ascension of ascending node: 164.4180°
argument of perigee: 241.3029°
revolutions per day: 15.27636095
mean anomaly at epoch: 118.7437°

The dashed part of the orbit path shows where the satellite is in the earth's shadow,  

DLR